Probability
0 0 0 0 0 0 0 0 0 0 0 0 0 0 0 0 0 0 0 0 0 0 0 0 0 0 0 0 0 0 0 0 0 0 0 0 0 0 0 0 0 0 0
0 0 0 0 0 0 0 0 0 0 0 0 0 0 0 0 0 0 0 0 0 0 0 0 0 0 0 0 0 0 0 0 0 0 0 0 0 0 0 0 0 0 0
0 0 0 0 0 0 0 0 0 0 0 0 0 0 0 0 0 0 0 0 0 0 0 0 0 0 0 0 0 0 0 0 0 0 0 0 0 0 0 0 0 0 0
0 0 0 0 0 0 0 0 0 0 0 0 0 0 0 0 0 0 0 0 0 0 0 0 0 0 0 0 0 0 0 0 0 0 0 0 0 0 0 0 0 0 0
0 0 0 0 0 0 0 0 0 0 0 0 0 0 0 0 0 0 0 0 0 0 0 0 0 0 1 1 0 0 0 0 0 0 0 0 0 0 0 0 0 0 0
0 0 0 0 0 0 0 0 0 0 0 0 0 0 0 0 0 0 0 0 0 0 0 0 0 1 3 3 1 1 1 1 1 1 1 0 0 0 0 0 0 0 0
0 0 0 0 0 0 0 0 0 0 0 0 0 0 0 0 0 0 0 0 0 0 0 0 0 1 2 2 1 1 1 1 2 2 2 1 1 0 0 0 0 0 0
0 0 0 0 0 0 0 0 0 0 0 0 0 0 0 0 0 0 0 0 0 0 0 0 0 0 0 0 0 1 1 0 1 2 2 2 2 1 0 0 0 0 0
0 0 0 0 0 0 0 0 0 0 0 0 0 0 0 0 0 0 0 0 0 0 0 0 0 0 0 0 0 0 0 0 0 1 1 2 2 1 0 0 0 0 0
0 0 0 0 0 0 0 0 0 0 0 0 0 0 0 0 0 0 0 0 0 0 0 0 0 0 0 0 0 0 0 0 0 0 1 1 1 1 0 0 1 1 0
0 0 0 0 0 0 0 0 0 0 0 0 0 0 0 0 0 0 0 0 0 0 0 0 0 0 0 0 0 0 0 0 0 0 0 1 1 1 0 0 1 2 1
0 0 0 0 0 0 0 0 0 0 0 0 0 0 0 1 1 1 1 1 0 0 0 1 1 0 0 0 0 0 0 0 0 0 0 0 1 2 1 0 1 2 2
0 0 0 0 0 0 0 0 0 0 0 0 0 0 1 2 2 2 2 2 1 1 1 2 2 1 1 1 0 0 0 0 0 0 0 0 1 2 1 0 0 1 1
0 0 0 0 0 0 0 0 0 0 0 0 0 0 1 2 2 2 3 2 1 1 2 2 3 2 1 0 0 0 0 0 0 0 0 0 0 1 1 0 0 0 0
0 0 0 0 0 0 0 0 0 0 0 0 0 0 0 1 1 1 1 2 1 1 1 1 2 2 1 0 0 0 0 0 0 0 0 0 0 0 0 0 0 0 0
0 0 0 0 0 0 0 0 0 0 0 0 0 0 0 0 0 0 0 1 1 0 0 0 1 1 0 0 0 0 0 0 0 0 0 0 0 0 0 0 0 0 0
0 0 0 0 0 0 0 0 0 0 0 0 0 0 0 0 0 0 0 0 0 0 0 0 0 0 0 0 0 0 0 1 0 0 0 0 0 0 0 0 0 0 0
0 0 0 0 0 0 0 0 0 0 0 0 0 0 0 0 0 0 0 0 0 0 0 0 0 0 0 0 0 0 0 0 0 0 0 0 0 0 0 0 0 0 0
0 0 0 0 0 0 0 0 0 0 0 0 0 0 0 0 0 0 0 0 0 0 0 0 0 0 0 0 0 0 0 0 0 0 0 0 0 0 0 0 0 0 0
0 0 0 0 0 0 0 0 0 0 0 0 0 0 0 0 0 0 0 0 0 0 0 0 0 0 0 0 0 0 0 0 0 0 0 0 0 0 0 0 0 0 0
0 0 0 0 0 0 0 0 0 0 0 0 0 0 0 0 0 0 0 0 0 0 0 0 0 0 0 0 0 0 0 0 0 0 0 0 0 0 0 0 0 0 0
0 0 0 0 0 1 0 0 0 0 0 0 0 0 0 0 0 0 0 0 0 0 0 0 0 0 0 0 0 0 0 0 0 0 0 0 0 0 0 0 0 0 0
0 0 0 0 0 0 0 0 0 0 0 0 0 0 0 0 0 0 0 0 0 0 0 0 0 0 0 0 0 0 0 0 0 0 0 0 0 0 0 0 0 0 0
0 0 0 0 0 0 0 0 0 0 0 0 0 0 0 0 0 0 0 0 0 0 0 0 0 0 0 0 0 0 0 0 0 0 0 0 0 0 0 0 0 0 0
0 0 0 0 0 0 0 0 0 0 0 0 0 0 0 0 0 0 0 0 0 0 0 0 0 0 0 0 0 0 0 0 0 0 0 0 0 0 0 0 0 0 0
0 0 0 0 0 0 0 0 0 0 0 0 0 0 0 0 0 0 0 0 0 0 0 0 0 0 0 0 0 0 0 0 0 0 0 0 0 0 0 0 0 0 0
Wind_Speed
1 0 0 0 0 0 0 0 0 1 1 1 2 3 4 4 4 3 2 8 9 9 9 9 9 9 9 9 9 9 9 9 9 8 8 8 8 8 8 8 8 7 7
2 1 1 1 1 1 0 0 0 0 0 1 1 3 4 4 4 4 3 5 8 9 9 10 10 10 10 10 9 9 9 9 9 9 9 8 9 9 9 9 8 8 7
3 3 2 2 1 1 1 0 0 1 0 0 1 2 2 3 4 4 4 3 4 8 10 10 10 10 11 11 11 11 10 10 10 10 9 9 9 9 9 9 9 8 8
4 3 3 2 2 1 1 1 1 0 0 1 1 1 1 2 4 5 4 4 4 4 7 11 11 11 11 11 12 12 11 11 11 11 11 10 10 10 10 10 10 9 9
4 3 3 2 2 1 1 2 1 1 1 1 1 1 2 3 4 5 5 6 5 5 5 7 10 11 12 13 13 12 12 12 12 12 12 12 12 11 11 11 11 10 10
3 4 3 3 2 2 2 1 1 1 1 2 1 1 2 2 3 4 5 5 5 6 6 6 5 7 11 12 12 13 13 13 13 13 13 13 13 13 12 12 12 12 12
3 3 3 3 3 3 3 3 2 2 1 1 1 1 1 1 2 3 4 4 5 6 6 7 6 5 5 9 10 11 13 13 13 13 13 14 14 13 13 13 12 13 13
3 4 4 3 4 3 3 3 2 1 1 2 2 1 1 2 2 2 3 4 5 4 6 7 6 6 6 5 6 11 12 13 14 13 13 13 14 13 13 13 13 13 13
3 3 3 3 3 3 3 4 4 4 3 2 2 3 2 2 2 2 2 3 3 4 4 5 6 7 7 5 5 8 11 11 12 13 13 12 12 12 13 14 14 14 13
2 2 3 3 3 3 3 4 4 3 3 2 2 2 2 2 2 2 2 2 3 3 4 4 5 6 6 5 5 7 9 9 10 11 11 11 11 12 12 13 15 15 14
1 2 2 2 3 3 4 4 3 3 3 3 3 2 2 2 2 2 3 2 1 2 3 4 4 4 4 5 5 6 8 8 9 9 9 10 10 11 11 13 14 14 14
0 0 1 1 2 2 3 3 3 4 3 3 3 3 3 3 3 3 4 3 2 2 2 2 3 3 3 4 6 6 7 7 7 8 8 8 9 9 10 11 12 12 13
0 1 0 1 1 2 2 2 2 2 3 3 3 3 3 3 2 3 3 3 2 2 1 1 2 2 3 2 3 5 5 5 6 6 7 7 6 6 7 8 10 10 9
1 0 0 0 0 0 0 0 1 1 1 2 3 2 2 3 2 3 3 3 2 2 2 2 1 1 1 1 1 3 2 3 4 5 5 5 4 4 3 3 4 4 5
0 1 1 1 1 1 1 1 1 0 0 1 1 1 1 2 2 2 2 2 3 3 3 2 1 1 0 0 1 0 0 1 1 1 2 2 2 2 2 2 2 2 1
2 2 3 3 3 2 2 2 2 1 1 1 0 0 1 1 1 1 1 2 2 3 2 0 1 0 0 1 2 2 2 4 5 4 4 4 4 3 3 4 4 3 3
3 3 3 3 3 3 3 2 2 2 2 2 2 1 2 2 1 1 1 0 1 1 2 1 1 1 1 2 3 3 3 3 4 7 7 7 6 6 5 6 6 5 4
4 4 4 4 4 4 3 3 3 3 3 2 2 3 3 2 3 2 1 0 0 1 1 1 1 1 2 2 3 3 3 3 3 7 8 8 8 8 8 8 7 6 6
4 4 4 4 4 4 4 4 3 3 3 3 3 3 3 3 3 3 2 1 1 1 1 1 1 1 1 1 2 3 4 3 4 5 7 7 8 8 8 8 8 7 6
5 4 4 4 4 4 4 4 4 4 4 5 5 4 4 4 3 3 2 2 2 2 2 2 2 1 1 2 2 2 2 3 3 3 5 5 7 8 8 8 8 8 7
5 4 5 5 4 4 4 4 4 5 5 5 6 5 6 7 8 6 4 3 3 3 3 3 3 2 2 2 1 1 2 2 3 2 3 3 3 3 4 5 7 8 7
6 6 6 6 6 5 7 8 6 5 6 6 6 6 6 8 10 11 11 10 8 5 4 3 3 3 2 2 1 1 1 1 1 2 2 3 3 3 3 3 6 7 7
6 6 6 6 7 7 9 9 10 6 6 6 6 5 5 6 7 7 9 12 12 12 9 4 4 3 2 2 1 1 1 2 1 1 1 3 3 3 3 4 8 7 7
5 5 6 6 6 7 9 9 10 8 7 7 6 6 6 6 6 6 7 9 9 9 8 6 5 4 4 3 2 2 2 3 3 3 2 2 2 3 3 4 7 8 8
5 5 5 6 6 6 8 9 8 6 7 8 7 7 6 6 8 8 8 8 8 7 9 12 11 10 11 10 6 4 4 4 3 3 3 2 2 2 2 3 5 8 7
5 5 6 6 6 5 7 8 8 5 6 6 6 7 10 8 8 8 7 7 7 6 6 7 9 10 9 10 11 6 3 3 2 2 3 2 1 1 2 2 3 3 4
Wind_Direction
178 171 304 13 15 66 84 53 41 56 72 119 152 161 169 174 175 181 192 194 193 192 190 189 187 185 183 183 184 183 183 181 180 180 181 181 180 180 182 182 182 181 180
184 186 208 242 264 260 245 235 348 55 50 121 166 176 183 185 188 190 198 207 207 202 201 200 198 197 196 195 196 197 198 196 193 193 194 195 193 192 193 193 193 191 190
194 191 201 226 238 229 204 114 25 43 80 141 184 193 191 198 197 198 199 207 216 215 213 210 208 207 207 206 207 207 208 206 203 202 203 202 201 202 203 202 202 199 198
199 187 198 224 223 201 179 167 160 105 256 198 208 214 196 204 208 207 206 210 216 221 223 221 219 218 218 218 220 216 214 212 211 210 210 210 209 209 210 210 210 209 207
198 192 201 212 200 194 201 207 172 173 203 218 220 218 220 215 213 214 214 217 219 223 226 229 229 227 227 228 228 224 220 218 216 216 217 216 216 215 214 215 214 213 213
203 192 199 201 187 189 209 203 194 181 197 209 231 237 246 232 217 219 222 220 222 227 228 229 231 234 234 235 235 231 228 223 221 222 223 222 221 220 218 218 218 218 217
211 200 203 192 187 195 209 202 192 194 211 171 132 330 310 256 231 229 226 224 227 228 226 224 224 226 235 237 239 237 235 231 227 227 226 226 226 224 221 221 221 221 221
210 211 207 202 195 191 203 202 186 185 218 177 157 135 319 322 286 237 221 225 234 229 227 225 223 224 229 231 236 238 239 238 237 234 231 229 228 226 224 224 224 224 224
214 211 209 206 197 191 204 209 198 194 207 204 179 163 176 238 291 292 239 229 227 224 229 226 226 227 227 229 236 239 240 239 239 240 237 233 229 226 225 226 227 227 227
219 215 214 214 207 202 210 218 205 201 193 209 205 201 199 181 197 285 292 251 229 233 234 232 232 231 227 223 224 229 235 237 241 244 243 238 232 227 228 228 230 229 230
240 232 221 216 213 211 216 221 206 204 203 206 203 190 198 210 208 212 261 276 260 246 238 236 238 237 230 224 223 225 227 232 234 240 245 244 238 231 231 235 235 235 234
286 278 217 213 216 215 219 223 213 206 211 217 216 205 193 195 203 204 228 246 257 262 252 242 235 236 232 228 229 224 223 226 229 233 238 242 243 237 234 236 237 238 237
268 280 222 222 233 234 229 221 211 216 213 221 223 223 220 227 211 201 215 236 249 264 268 259 243 242 243 237 237 230 225 222 228 234 233 235 240 243 243 242 239 238 239
262 340 94 118 301 294 272 199 199 224 223 233 240 234 235 241 227 216 211 209 241 257 245 252 272 249 244 245 262 242 241 222 225 228 226 224 219 218 225 230 227 227 227
57 55 77 75 44 49 68 96 90 74 148 224 243 240 246 253 240 237 231 217 217 250 264 239 237 294 239 143 41 136 221 85 149 206 211 202 189 176 172 162 153 158 178
50 59 60 69 64 58 62 78 66 51 66 16 342 312 297 288 273 258 243 238 226 226 248 272 244 291 326 97 78 70 66 66 64 76 78 88 100 101 101 99 96 96 99
57 62 67 66 60 51 52 65 59 48 50 28 16 22 357 347 326 312 294 219 206 206 232 289 11 17 45 59 58 65 62 64 67 76 79 79 81 84 84 84 85 86 85
64 68 71 70 63 53 52 62 61 57 57 41 24 28 14 7 3 359 20 35 196 193 176 195 10 33 48 52 62 64 59 63 65 69 75 79 84 86 87 86 85 83 81
74 70 71 68 60 53 53 57 65 65 58 48 38 35 20 20 23 22 29 32 30 72 109 129 70 33 46 61 65 63 58 49 61 65 70 75 81 82 82 84 85 81 77
78 73 69 67 65 60 55 57 63 65 62 53 46 41 35 32 34 28 37 36 56 70 81 94 82 49 42 44 68 65 57 45 48 47 57 62 69 75 76 79 81 78 70
74 70 69 61 56 59 55 56 62 67 64 58 48 42 47 53 51 50 57 54 63 72 76 75 71 56 40 38 38 37 74 61 44 43 54 50 53 61 62 66 72 73 73
68 67 63 60 56 56 56 64 73 68 66 63 54 44 47 47 52 55 61 63 65 70 74 73 68 60 35 13 21 83 96 86 58 21 48 47 45 57 53 55 61 71 70
71 68 61 62 60 53 58 68 70 73 69 60 54 48 50 48 49 56 60 57 53 53 58 74 73 50 27 352 18 63 48 60 65 17 63 61 43 53 49 57 62 67 69
77 72 64 61 61 53 62 73 75 72 69 59 53 51 55 48 51 65 69 63 55 46 46 52 59 48 40 31 47 77 93 84 73 49 43 68 38 42 41 47 58 70 71
79 71 66 63 63 52 59 71 74 72 67 56 47 46 53 55 50 68 76 72 61 47 50 59 59 54 51 51 54 73 72 81 66 41 27 61 62 48 45 43 49 58 63
90 84 70 59 62 57 57 68 71 77 71 60 48 43 48 57 57 65 75 75 68 46 44 46 46 42 43 45 45 49 61 80 74 56 28 42 56 58 72 46 33 36 48